Wind_Speed
18 18 18 18 22 19 19 20 20 19 18 17 17 16 15 13 10 8 7 8 8 8 8 9 9 9 10 10 10 10 11 11 12 12 12 11 11 10 10 10 9 8 7 7 7 7 6 6 5
18 18 17 19 20 17 18 19 20 19 18 18 17 16 15 13 11 9 8 7 7 7 7 8 8 9 9 9 10 10 11 11 11 11 11 10 10 9 9 8 8 8 7 6 7 6 6 5 5
17 17 16 18 16 16 17 18 19 20 19 19 18 17 15 13 11 9 8 8 7 7 7 8 8 8 9 9 9 10 10 10 10 10 10 9 9 8 8 8 7 7 7 6 7 6 5 5 5
15 16 17 16 14 15 16 17 18 20 19 19 18 17 15 13 11 9 8 7 6 6 7 7 7 8 8 9 9 9 10 10 9 9 9 9 8 8 8 7 7 6 6 6 6 6 5 5 5
15 16 16 13 13 15 16 16 17 19 19 19 18 17 16 13 11 9 7 6 5 5 6 6 6 7 8 8 9 9 9 9 9 9 8 8 7 7 7 7 7 6 6 6 5 5 5 5 5
15 15 12 12 13 14 15 16 17 18 19 18 17 17 16 14 12 9 8 6 4 4 4 5 6 7 7 7 8 9 9 9 9 8 8 8 7 7 7 6 6 6 6 5 5 4 4 5 5
13 13 11 11 12 14 14 15 16 16 17 18 17 16 15 13 12 10 8 6 4 3 2 3 5 6 6 7 8 9 9 9 9 8 8 8 7 7 6 6 5 5 5 5 4 4 4 4 4
12 12 10 10 11 13 13 14 15 15 16 16 16 16 15 13 12 10 9 7 5 3 2 2 4 5 5 6 7 8 8 9 9 8 8 7 7 6 5 5 5 5 5 4 4 4 4 4 4
10 10 7 8 10 11 12 13 14 14 15 16 16 15 14 13 12 11 10 7 5 3 1 1 3 4 4 6 7 8 8 9 9 9 8 8 7 6 5 5 5 5 4 4 4 4 4 4 3
9 7 6 8 9 10 11 12 13 14 15 16 16 15 14 13 12 11 10 8 5 4 3 0 2 4 4 6 7 8 8 9 9 9 9 8 7 6 5 4 5 5 5 4 4 4 4 4 3
7 6 6 7 8 9 9 11 12 13 14 15 15 15 14 12 11 11 10 7 5 5 4 2 1 3 4 6 8 8 8 10 10 9 9 9 8 7 5 4 5 5 4 4 4 4 4 4 3
6 6 6 7 8 8 9 9 11 12 13 14 14 14 13 12 11 10 9 7 5 5 5 4 3 4 3 5 7 8 9 10 10 10 10 9 8 7 6 5 5 5 4 4 4 4 4 3 3
6 5 6 6 7 7 8 9 9 10 11 13 14 14 14 13 11 9 8 7 6 5 6 5 5 4 4 5 7 8 9 10 10 10 10 10 9 8 6 5 5 4 4 4 5 4 4 3 3
4 5 6 7 7 7 7 8 9 10 10 11 13 14 14 14 12 10 9 8 7 6 6 5 5 4 5 6 6 8 10 11 11 11 11 11 10 8 7 5 5 5 4 4 5 5 4 4 3
3 4 6 6 7 7 8 8 8 9 10 11 12 13 13 14 13 11 9 8 8 7 7 6 6 5 5 6 6 8 10 11 12 11 12 11 11 9 8 6 6 5 5 4 4 4 4 4 3
3 4 5 6 7 7 7 6 8 9 10 11 12 12 13 14 14 12 9 8 9 9 8 7 7 7 6 5 7 8 10 11 11 12 13 13 12 10 9 7 6 6 5 5 5 4 4 4 4
3 4 5 6 7 8 7 7 8 9 10 11 11 11 12 12 13 13 10 9 9 9 8 8 8 8 6 5 6 8 9 11 11 11 12 13 13 12 10 9 8 6 6 5 5 5 5 5 5
3 4 5 7 7 7 8 8 9 10 10 10 10 11 11 12 13 13 12 11 10 9 9 9 8 8 5 4 6 8 9 10 11 11 12 13 13 13 12 10 9 8 7 6 6 5 5 6 6
4 5 6 7 8 8 8 9 10 10 10 10 9 10 11 12 13 13 13 13 11 10 9 9 9 8 6 5 6 8 8 10 11 11 11 12 12 13 12 11 10 9 8 7 7 6 6 6 6
6 6 8 9 9 9 9 9 10 10 10 10 9 10 10 11 13 13 13 13 12 10 10 10 9 9 7 6 5 7 8 9 10 11 12 12 13 14 13 12 11 10 9 8 8 8 8 7 7
8 8 9 10 9 10 9 10 11 11 10 10 10 10 10 11 12 13 13 13 12 11 10 9 9 9 7 7 5 6 7 8 10 11 13 13 13 14 15 13 12 11 11 10 9 9 9 9 9
11 11 10 10 9 10 9 8 11 11 11 11 10 11 11 11 12 12 13 13 13 11 10 9 9 8 7 7 5 5 5 8 10 12 13 14 14 15 15 14 13 12 12 11 11 11 11 11 11
13 12 12 11 11 11 11 8 10 11 11 10 10 11 11 11 11 12 13 13 12 11 11 10 9 9 8 7 6 6 7 8 10 11 12 14 14 15 15 15 14 13 13 12 12 12 12 13 12
14 14 13 12 12 12 11 10 10 10 10 11 11 11 11 11 11 12 13 13 12 12 11 10 10 10 9 7 7 7 7 8 10 10 12 13 14 15 15 15 15 15 14 14 13 13 13 14 14
15 14 13 12 12 12 13 11 11 11 11 11 11 10 11 11 12 12 12 12 13 12 11 11 10 9 8 7 7 7 8 8 10 10 11 12 14 16 16 16 15 15 15 15 14 14 14 15 15
17 16 14 12 11 13 14 12 12 12 11 10 10 11 11 11 11 12 12 12 12 12 11 11 10 9 8 7 7 8 9 9 9 10 10 12 13 15 16 16 15 15 15 15 15 15 16 16 16
19 17 16 16 15 13 14 13 12 12 11 10 10 10 11 11 12 12 12 12 13 12 11 10 10 10 9 8 8 8 8 9 9 10 10 12 13 14 14 14 14 15 15 16 16 16 16 17 17
22 20 19 17 15 13 14 12 11 11 11 10 10 10 11 12 12 11 12 12 12 12 11 10 10 10 10 9 8 7 8 8 9 10 10 11 12 13 14 13 13 14 15 15 16 16 17 18 18
23 22 20 19 17 14 12 12 12 11 10 9 9 10 10 11 11 12 12 12 12 12 11 11 10 10 10 9 8 9 8 8 9 9 10 10 11 12 14 13 13 14 14 15 16 17 17 18 19
25 23 22 21 19 16 14 13 14 11 10 10 9 10 10 11 12 12 12 12 12 12 11 11 10 10 9 9 8 8 8 9 9 9 9 10 11 12 13 13 14 14 15 16 17 18 19 19 19
Wind_Direction
74 72 70 69 65 64 64 64 62 60 60 60 60 61 61 65 76 87 103 118 127 136 139 140 139 139 144 143 139 133 132 129 127 124 120 117 115 113 113 112 111 110 111 106 104 102 101 101 101
73 67 65 65 69 64 63 61 59 57 56 57 56 56 56 60 68 79 92 108 123 136 139 142 144 146 148 147 144 141 135 131 128 124 121 120 119 117 116 115 115 112 109 113 107 103 102 104 105
70 64 60 64 68 66 63 60 59 57 54 53 52 52 54 59 63 70 82 97 114 133 141 143 150 154 153 153 151 148 143 138 136 132 127 125 121 119 119 119 119 114 110 111 109 106 104 106 108
70 62 58 62 60 59 60 58 57 56 52 51 50 51 53 57 59 63 70 80 102 127 142 146 153 158 162 162 159 154 151 148 145 140 133 130 127 122 119 119 120 117 116 116 112 111 107 108 112
68 62 60 58 56 54 54 53 51 54 50 47 48 49 51 53 55 59 63 71 86 114 136 152 159 165 167 169 167 167 163 158 153 148 142 140 134 129 124 123 123 122 122 121 116 115 115 113 114
66 64 64 55 51 51 50 48 47 49 46 44 45 47 47 47 49 51 54 64 79 108 141 161 174 179 181 179 175 172 169 164 161 156 151 149 145 139 134 129 128 129 127 125 123 123 122 124 121
65 65 56 50 48 47 47 46 45 44 44 43 42 43 44 43 43 44 44 47 57 87 137 170 187 185 188 187 180 175 176 174 169 166 159 153 150 144 137 134 132 132 132 132 131 132 132 133 131
65 62 50 44 47 44 43 42 40 42 43 41 39 39 39 40 40 37 37 39 48 56 125 161 194 193 192 183 176 176 181 183 179 175 166 159 154 149 142 137 136 135 137 137 137 138 141 141 135
67 67 49 45 45 43 42 40 37 38 40 39 37 35 35 36 35 33 30 31 38 50 72 187 195 203 205 191 188 187 188 187 183 182 176 169 163 158 151 142 142 140 138 137 139 139 142 146 136
73 76 51 45 44 41 40 40 35 36 34 33 31 30 29 30 29 26 23 29 39 40 26 301 203 216 225 207 198 199 199 192 189 187 183 178 174 169 161 152 150 146 140 140 143 141 146 148 147
75 74 56 48 46 41 39 39 37 37 30 26 23 23 24 23 23 23 23 29 30 20 14 11 282 247 242 215 207 205 201 199 196 193 190 187 185 181 171 163 156 152 146 145 148 148 150 151 153
73 68 53 49 47 44 39 37 37 33 27 22 19 19 18 19 17 19 21 24 15 3 350 329 317 273 254 221 216 207 202 201 202 200 197 194 193 190 183 174 164 161 158 156 157 155 156 159 164
68 64 53 47 46 44 36 34 33 26 21 18 14 14 15 18 14 13 17 13 360 346 345 330 309 277 256 234 217 215 209 205 205 205 202 197 194 192 190 179 176 173 165 163 166 167 168 168 171
55 54 48 43 44 40 31 27 23 17 14 13 11 10 12 12 9 10 8 7 0 343 338 335 320 293 264 245 229 219 213 211 209 209 205 201 198 195 191 187 184 183 177 174 175 178 179 180 184
37 35 38 36 36 34 27 19 14 8 7 7 4 3 4 3 3 2 358 354 352 341 331 329 319 314 283 260 231 217 216 216 213 212 209 207 204 201 195 194 194 194 193 188 187 188 193 194 193
16 15 17 20 24 23 23 4 360 358 359 360 359 357 357 360 360 357 350 344 341 334 328 328 326 316 297 263 234 222 219 217 215 214 212 210 209 207 204 201 200 201 203 201 202 206 204 200 199
357 353 352 2 12 12 11 353 349 351 351 352 351 349 351 352 354 354 350 345 340 335 330 326 324 317 298 262 235 226 219 214 212 215 216 217 215 214 213 209 208 207 205 206 210 215 212 207 208
305 321 330 342 355 357 356 347 343 342 342 342 341 343 344 345 344 347 347 343 340 337 330 324 321 320 306 262 236 227 222 216 214 216 220 223 219 217 217 216 213 212 209 209 214 220 223 220 219
287 298 308 323 339 341 342 339 337 336 336 332 331 334 338 341 339 341 343 341 338 338 330 323 320 315 301 276 244 231 225 222 221 219 220 223 222 219 220 219 217 219 217 216 221 226 227 227 228
276 285 296 310 324 328 330 330 331 331 331 330 329 331 333 335 336 339 342 343 340 337 334 328 319 314 303 293 262 240 232 225 224 222 221 222 221 220 221 221 220 223 226 226 229 232 232 234 237
270 276 287 301 315 320 325 328 326 326 327 327 326 325 325 329 333 335 338 340 341 336 332 325 320 315 303 294 271 247 235 233 228 223 220 221 222 222 221 222 223 226 232 233 236 238 240 241 243
264 273 284 296 306 307 318 312 316 322 323 322 320 320 323 325 331 335 339 338 335 334 333 326 320 317 305 295 273 250 240 231 231 227 226 227 225 224 221 221 225 230 236 240 244 247 247 247 249
262 273 281 291 297 301 308 308 305 315 318 316 315 317 317 321 328 333 335 335 334 332 331 328 323 316 303 292 281 264 246 240 239 236 231 231 228 226 222 226 231 236 242 247 249 250 251 251 253
263 272 279 285 291 294 299 301 300 301 308 309 313 313 312 318 322 329 332 334 335 332 329 328 321 315 303 285 280 270 253 245 242 239 232 233 230 228 227 231 236 241 247 249 249 252 254 254 256
260 267 276 282 285 286 293 296 291 294 300 302 305 308 310 316 320 322 327 333 336 333 329 328 324 318 306 285 275 266 257 251 249 243 236 234 233 231 232 235 240 244 247 248 250 253 256 258 260
255 258 260 262 270 281 292 293 292 292 295 299 298 299 304 309 315 320 323 329 333 333 328 327 323 320 315 295 276 272 264 257 253 249 244 239 236 234 234 237 242 246 249 252 255 255 258 261 262
254 256 258 262 268 271 281 293 293 290 291 291 292 293 297 304 310 317 322 325 328 329 325 322 322 317 314 307 291 278 262 257 257 252 249 242 239 235 235 242 247 252 253 255 256 258 261 262 262
251 254 256 259 264 271 282 291 288 290 290 285 285 289 292 297 306 315 320 323 326 326 323 319 318 318 313 305 296 282 267 262 261 260 258 251 242 237 240 245 249 254 256 259 259 261 262 262 264
250 252 254 256 258 262 269 278 281 285 285 285 284 287 290 293 301 311 318 320 322 324 321 319 315 314 312 306 294 281 272 268 265 261 258 251 245 238 240 247 252 257 264 267 265 265 264 265 266
249 251 253 255 259 259 255 266 278 278 279 281 281 283 289 292 300 306 312 318 322 322 321 318 317 312 309 305 297 284 275 272 268 261 259 256 253 248 248 250 254 260 264 268 266 266 266 266 266
Height
5920 5919 5919 5919 5918 5920 5917 5915 5914 5912 5910 5908 5907 5905 5905 5904 5905 5906 5904 5902 5903 5904 5904 5904 5905 5906 5907 5908 5909 5909 5910 5910 5911 5911 5911 5912 5912 5912 5913 5913 5913 5914 5914 5915 5915 5915 5915 5915 5915
5922 5921 5922 5921 5923 5922 5920 5917 5915 5913 5912 5910 5908 5906 5905 5905 5904 5904 5903 5903 5904 5904 5904 5905 5906 5907 5908 5909 5910 5910 5911 5911 5911 5912 5912 5912 5913 5913 5914 5914 5914 5914 5915 5915 5915 5915 5916 5916 5916
5924 5924 5924 5925 5925 5924 5922 5919 5917 5915 5913 5911 5909 5908 5907 5906 5905 5905 5904 5904 5904 5905 5905 5906 5907 5908 5909 5909 5910 5911 5911 5912 5912 5912 5913 5913 5913 5914 5914 5914 5915 5915 5915 5916 5916 5916 5916 5916 5916
5926 5927 5927 5929 5927 5925 5922 5921 5918 5916 5914 5912 5911 5910 5908 5907 5906 5906 5905 5905 5905 5905 5906 5906 5907 5908 5909 5910 5911 5911 5911 5912 5912 5913 5913 5913 5914 5914 5915 5915 5915 5915 5916 5916 5916 5916 5917 5917 5917
5929 5929 5932 5931 5928 5926 5924 5922 5919 5917 5916 5914 5913 5911 5909 5908 5907 5907 5906 5905 5905 5905 5906 5907 5907 5908 5909 5910 5910 5911 5911 5912 5913 5913 5913 5914 5914 5915 5915 5915 5915 5916 5916 5916 5916 5917 5917 5917 5917
5932 5932 5935 5933 5930 5928 5926 5923 5921 5919 5917 5916 5914 5912 5910 5909 5908 5907 5906 5906 5906 5906 5906 5907 5907 5908 5909 5909 5910 5910 5911 5912 5912 5913 5913 5914 5914 5915 5915 5915 5915 5916 5916 5916 5917 5917 5917 5918 5918
5934 5935 5935 5934 5932 5930 5928 5925 5923 5921 5919 5917 5915 5913 5911 5910 5909 5908 5907 5906 5906 5906 5906 5906 5907 5907 5908 5908 5909 5910 5911 5911 5912 5913 5913 5914 5914 5915 5915 5916 5916 5916 5916 5916 5917 5917 5917 5918 5918
5934 5936 5936 5935 5933 5932 5929 5926 5924 5922 5920 5918 5916 5914 5913 5911 5910 5908 5907 5907 5906 5906 5906 5906 5907 5907 5907 5908 5908 5909 5910 5911 5912 5913 5913 5914 5914 5915 5915 5915 5916 5916 5916 5916 5917 5917 5917 5918 5918
5935 5938 5937 5935 5934 5932 5930 5928 5925 5923 5921 5919 5917 5916 5914 5912 5910 5909 5908 5907 5906 5906 5906 5906 5906 5906 5906 5907 5907 5908 5909 5910 5911 5912 5913 5914 5914 5915 5915 5915 5916 5916 5916 5916 5917 5917 5917 5918 5918
5936 5938 5937 5936 5934 5933 5931 5929 5927 5924 5922 5921 5919 5916 5914 5912 5911 5909 5908 5907 5906 5906 5906 5905 5905 5905 5905 5906 5906 5907 5908 5909 5910 5911 5912 5913 5914 5914 5915 5915 5916 5916 5916 5916 5917 5917 5917 5918 5918
5937 5937 5936 5935 5934 5933 5932 5930 5928 5926 5924 5922 5920 5918 5915 5913 5911 5910 5909 5907 5907 5906 5906 5905 5905 5904 5904 5904 5905 5906 5907 5908 5909 5910 5912 5913 5913 5914 5915 5915 5915 5916 5916 5916 5916 5917 5917 5918 5918
5937 5937 5936 5936 5935 5934 5932 5931 5929 5927 5926 5923 5921 5918 5916 5914 5912 5910 5909 5908 5907 5906 5905 5904 5904 5903 5903 5903 5904 5905 5906 5907 5908 5909 5911 5912 5913 5914 5914 5915 5915 5915 5916 5916 5916 5917 5918 5918 5918
5938 5937 5937 5936 5936 5934 5933 5932 5930 5928 5926 5924 5922 5919 5917 5915 5913 5911 5910 5908 5907 5906 5905 5903 5903 5902 5902 5902 5903 5903 5905 5906 5907 5909 5910 5911 5912 5913 5913 5914 5915 5915 5916 5916 5917 5917 5917 5918 5918
5938 5938 5937 5937 5936 5935 5934 5933 5931 5929 5927 5925 5922 5920 5918 5916 5913 5911 5910 5908 5907 5905 5904 5903 5902 5901 5901 5901 5901 5902 5903 5904 5906 5907 5909 5910 5911 5912 5913 5914 5915 5915 5916 5916 5916 5917 5917 5918 5918
5937 5938 5938 5937 5937 5936 5935 5934 5932 5929 5927 5925 5923 5921 5918 5916 5914 5912 5910 5908 5906 5905 5904 5902 5901 5900 5900 5899 5900 5900 5901 5903 5904 5906 5908 5909 5911 5912 5912 5913 5914 5915 5915 5916 5916 5917 5917 5918 5918
5937 5938 5938 5938 5937 5936 5936 5936 5933 5930 5928 5926 5924 5921 5919 5916 5914 5912 5909 5908 5906 5905 5903 5902 5901 5899 5898 5898 5898 5899 5900 5901 5902 5904 5906 5908 5910 5911 5912 5913 5914 5914 5915 5915 5916 5916 5917 5917 5918
5937 5938 5938 5938 5936 5935 5935 5934 5932 5930 5928 5926 5924 5922 5919 5917 5914 5911 5908 5907 5906 5904 5903 5901 5900 5899 5897 5897 5897 5897 5898 5899 5901 5903 5905 5907 5908 5909 5911 5912 5913 5914 5914 5915 5915 5916 5916 5917 5917
5937 5937 5937 5936 5936 5935 5934 5933 5932 5930 5928 5926 5924 5921 5919 5917 5914 5912 5909 5907 5905 5903 5902 5900 5899 5897 5896 5895 5895 5896 5897 5898 5899 5901 5903 5905 5906 5908 5909 5911 5912 5913 5914 5914 5915 5915 5916 5916 5917
5935 5935 5935 5935 5934 5934 5934 5932 5931 5929 5927 5925 5923 5921 5919 5917 5914 5912 5909 5906 5904 5903 5901 5899 5898 5896 5895 5894 5894 5894 5895 5896 5898 5899 5901 5902 5904 5906 5908 5909 5911 5912 5913 5913 5914 5914 5915 5915 5916
5933 5934 5934 5933 5933 5933 5932 5931 5930 5928 5926 5925 5923 5921 5919 5916 5914 5912 5909 5906 5904 5902 5900 5898 5896 5895 5894 5894 5893 5893 5894 5895 5896 5897 5899 5900 5902 5904 5906 5908 5909 5910 5911 5912 5913 5913 5913 5914 5914
5931 5932 5932 5932 5932 5931 5931 5931 5929 5927 5925 5924 5922 5920 5918 5916 5914 5911 5909 5906 5904 5901 5899 5897 5896 5895 5893 5892 5892 5892 5892 5893 5894 5895 5897 5898 5900 5902 5903 5905 5907 5909 5910 5910 5911 5912 5912 5913 5913
5928 5929 5930 5930 5930 5930 5930 5931 5928 5925 5924 5922 5920 5919 5917 5915 5913 5911 5908 5906 5903 5901 5899 5897 5895 5894 5892 5891 5891 5890 5891 5891 5892 5893 5895 5896 5897 5899 5901 5903 5905 5907 5908 5909 5909 5910 5910 5911 5911
5925 5926 5927 5927 5928 5928 5928 5928 5928 5924 5922 5921 5919 5918 5916 5914 5912 5910 5908 5905 5902 5900 5898 5896 5894 5893 5891 5890 5890 5889 5889 5889 5890 5891 5893 5894 5895 5897 5898 5900 5903 5904 5905 5906 5907 5907 5908 5908 5909
5923 5924 5924 5925 5926 5926 5926 5926 5926 5923 5921 5919 5918 5916 5914 5913 5911 5909 5907 5904 5901 5899 5897 5895 5893 5892 5890 5889 5888 5888 5887 5888 5888 5889 5890 5891 5893 5894 5896 5898 5900 5901 5903 5904 5904 5905 5905 5906 5906
5920 5922 5923 5923 5924 5925 5923 5922 5923 5920 5918 5917 5916 5914 5913 5911 5910 5908 5905 5903 5900 5897 5895 5894 5892 5890 5888 5887 5887 5887 5886 5886 5886 5887 5888 5889 5890 5892 5893 5895 5897 5898 5899 5901 5901 5902 5902 5903 5903
5916 5918 5921 5923 5924 5922 5919 5919 5920 5917 5916 5915 5914 5912 5911 5910 5908 5906 5904 5902 5899 5897 5894 5892 5891 5889 5887 5886 5886 5885 5884 5884 5884 5885 5886 5887 5888 5889 5891 5892 5894 5895 5896 5897 5898 5898 5899 5899 5899
5911 5914 5916 5917 5917 5918 5918 5917 5916 5914 5913 5912 5911 5910 5909 5908 5906 5905 5902 5900 5898 5895 5893 5891 5890 5888 5886 5884 5883 5882 5882 5882 5882 5883 5883 5884 5885 5886 5888 5889 5891 5892 5893 5894 5895 5895 5895 5896 5896
5907 5909 5911 5913 5914 5915 5915 5914 5914 5911 5910 5910 5909 5908 5907 5906 5905 5903 5901 5899 5896 5894 5892 5890 5888 5886 5884 5883 5881 5881 5880 5880 5880 5881 5881 5882 5882 5884 5886 5887 5888 5889 5890 5890 5891 5891 5891 5892 5892
5903 5905 5906 5908 5910 5912 5914 5915 5910 5909 5908 5907 5906 5906 5905 5904 5903 5901 5899 5897 5895 5893 5890 5889 5887 5885 5883 5882 5880 5879 5879 5879 5879 5879 5879 5879 5880 5881 5883 5884 5885 5886 5886 5886 5887 5887 5887 5887 5887
5897 5899 5902 5904 5905 5907 5909 5912 5906 5905 5905 5904 5904 5903 5902 5901 5900 5899 5897 5895 5893 5891 5889 5887 5885 5884 5882 5880 5879 5878 5877 5877 5877 5877 5877 5877 5878 5879 5880 5881 5882 5882 5883 5883 5883 5883 5883 5883 5883